Weather History for Worland, WY

Change the Weather History Date:

Wednesday, May 22, 2013

  Actual Average Record
Temperature  
Mean Temperature 59 °F 57 °F  
Max Temperature 77 °F 72 °F 93 °F (1980)
Min Temperature 40 °F 43 °F 29 °F (1974)
Degree Days  
Heating Degree Days 6 8  
Month to date heating degree days 191 247  
Since 1 July heating degree days 7370 7714  
Cooling Degree Days 0 0  
Month to date cooling degree days 16 0  
Year to date cooling degree days 16 1  
Growing Degree Days 8 (Base 50)    
Moisture  
Dew Point 39 °F    
Average Humidity 51    
Maximum Humidity 79    
Minimum Humidity 23    
Precipitation  
Precipitation 0.00 in 0.05 in 0.65 in (1981)
Month to date precipitation 0.78 0.99  
Year to date precipitation 2.35 2.73  
Sea Level Pressure  
Sea Level Pressure 29.77 in    
Wind  
Wind Speed 10 mph (East)    
Max Wind Speed 35 mph    
Max Gust Speed 45 mph    
Visibility 10 miles    
Events Thunderstorm    
T = Trace of Precipitation, MM = Missing Value Source: NWS Daily Summary

Daily Weather History Graph

Daily Weather History Graph

Search for Another Location

Airport:

Trip Planner

Search our weather history database for the weather conditions in past years. The results will help you decide how hot, cold, wet, or windy it might be!

Date:

Astronomy

May. 22, 2013 Rise Set
Actual Time 5:38 AM MDT 8:38 PM MDT
Civil Twilight 5:04 AM MDT 9:13 PM MDT
Nautical Twilight 4:20 AM MDT 9:57 PM MDT
Astronomical Twilight 3:28 AM MDT 10:49 PM MDT
Moon 6:00 PM MDT 3:50 AM MDT
Length of Visible Light 16h 08m
Length of Day
15h 00m
Waxing Gibbous, 92% of the Moon is Illuminated
May 22
Waxing Gibbous
May 24
Full
May 31
Last Quarter
Jun 8
New
Jun 16
First Quarter

Hourly Weather History & Observations

Time (MDT) Temp. Dew Point Humidity Pressure Visibility Wind Dir Wind Speed Gust Speed Precip Events Conditions
12:53 AM 51.1 °F 36.0 °F 56% 29.82 in 10.0 mi ESE 8.1 mph - N/A   Clear
1:53 AM 50.0 °F 36.0 °F 59% 29.82 in 10.0 mi ESE 5.8 mph - N/A   Clear
2:53 AM 48.0 °F 37.0 °F 66% 29.83 in 10.0 mi NNE 3.5 mph - N/A   Clear
3:53 AM 44.1 °F 36.0 °F 73% 29.84 in 10.0 mi Calm Calm - N/A   Clear
4:53 AM 42.1 °F 36.0 °F 79% 29.85 in 10.0 mi Calm Calm - N/A   Clear
5:53 AM 41.0 °F 36.0 °F 82% 29.85 in 10.0 mi Calm Calm - N/A   Clear
6:53 AM 46.9 °F 39.0 °F 74% 29.84 in 10.0 mi Calm Calm - N/A   Clear
7:53 AM 50.0 °F 39.9 °F 68% 29.85 in 10.0 mi North 3.5 mph - N/A   Clear
8:53 AM 53.1 °F 41.0 °F 64% 29.86 in 10.0 mi Calm Calm - N/A   Clear
9:53 AM 57.9 °F 39.9 °F 51% 29.83 in 10.0 mi North 3.5 mph - N/A   Clear
10:53 AM 61.0 °F 39.0 °F 44% 29.80 in 10.0 mi Calm Calm - N/A   Clear
11:53 AM 64.0 °F 39.9 °F 41% 29.78 in 10.0 mi NE 4.6 mph - N/A   Clear
12:53 PM 69.1 °F 39.0 °F 33% 29.76 in 10.0 mi North 8.1 mph - N/A   Clear
1:53 PM 73.0 °F 37.9 °F 28% 29.72 in 10.0 mi NE 6.9 mph - N/A   Clear
2:53 PM 73.0 °F 39.0 °F 29% 29.70 in 10.0 mi Calm Calm - N/A   Clear
3:41 PM 75.2 °F 37.4 °F 25% 29.76 in 10.0 mi SE 19.6 mph - N/A   Clear
3:53 PM 75.9 °F 39.0 °F 26% 29.68 in 10.0 mi ESE 19.6 mph 28.8 mph N/A   Clear
4:53 PM 75.0 °F 36.0 °F 24% 29.67 in 10.0 mi ESE 25.3 mph 31.1 mph N/A   Clear
5:53 PM 70.0 °F 35.1 °F 28% 29.68 in 10.0 mi ESE 28.8 mph 38.0 mph N/A   Clear
6:53 PM 68.0 °F 37.9 °F 33% 29.66 in 10.0 mi ESE 21.9 mph 34.5 mph N/A   Clear
7:53 PM 66.0 °F 39.0 °F 37% 29.68 in 10.0 mi ESE 33.4 mph 42.6 mph N/A   Partly Cloudy
8:40 PM 64.4 °F 39.2 °F 40% 29.76 in 10.0 mi ESE 25.3 mph 39.1 mph N/A Thunderstorm Partly Cloudy
8:53 PM 64.9 °F 39.9 °F 40% 29.69 in 10.0 mi ESE 28.8 mph 40.3 mph N/A   Clear
9:53 PM 64.0 °F 39.9 °F 41% 29.73 in 10.0 mi East 20.7 mph 33.4 mph N/A   Scattered Clouds
10:53 PM 61.0 °F 44.1 °F 54% 29.75 in 10.0 mi NE 11.5 mph - N/A   Clear
11:53 PM 57.9 °F 45.0 °F 62% 29.78 in 10.0 mi NE 6.9 mph - N/A   Partly Cloudy